Voltar ao catálogo

STARLINK-34497

AtivoComunicaçõesVLEO
NORAD 64696·PAYLOAD·🇺🇸 United States

Lançado Jun 28, 2025 de Vandenberg Space Force Base

Loading…

Próximas Passagens (próximas 24 horas)

TLE

AtualizadoSource: CelesTrak SupGP

Época: Sep 15, 2026, 02:45 UTC

1 64696C 25142A   26258.11506944 -.00019403  00000+0 -67509-3 0  2584
2 64696  70.0014 195.4080 0003194 272.7639 355.0153 15.29583700    18

Acompanhe STARLINK-34497 em tempo real com AllMySat

Download on the App Store